CFG2004 WBKK-RPLL

Flight info

Callsign CFG2004
Flight time 1h 28m
Altitude 39000
Route VETAG1F VETAG DCT OSANU M646 TOKON DCT LUBAN LUBAN1D
Aircraft A333/H-SDE3GHIJ2J3J5M1RVWXY/LB2D1

Departure

Time 2026-04-26 09:22
Airport Kota Kinabalu International Airport (WBKK)

Arrival

Time 2026-04-26 10:51
Airport Ninoy Aquino International Airport (RPLL)
Time Latitude Longitude Altitude Speed Heading
2026-04-26 08:58 5.92255 116.04976 31 ft 0 kts 68°
2026-04-26 09:15 5.92253 116.04972 31 ft 3 kts 69°
2026-04-26 09:15 5.92247 116.04947 31 ft 4 kts 71°
2026-04-26 09:15 5.92235 116.04924 29 ft 4 kts 45°
2026-04-26 09:16 5.92214 116.04911 31 ft 4 kts
2026-04-26 09:16 5.92191 116.04914 30 ft 1 kts 338°
2026-04-26 09:16 5.92187 116.04916 30 ft 1 kts 338°
2026-04-26 09:18 5.92187 116.04915 30 ft 1 kts 338°
2026-04-26 09:18 5.92210 116.04906 30 ft 6 kts 339°
2026-04-26 09:18 5.92265 116.04885 30 ft 11 kts 338°
2026-04-26 09:19 5.92346 116.04851 29 ft 15 kts 336°
2026-04-26 09:19 5.92408 116.04767 28 ft 13 kts 271°
2026-04-26 09:19 5.92367 116.04728 28 ft 10 kts 199°
2026-04-26 09:19 5.92258 116.04689 29 ft 23 kts 203°
2026-04-26 09:20 5.92106 116.04624 31 ft 24 kts 202°
2026-04-26 09:20 5.91954 116.04560 30 ft 25 kts 202°
2026-04-26 09:20 5.91799 116.04494 28 ft 18 kts 209°
2026-04-26 09:20 5.91794 116.04395 29 ft 15 kts 291°
2026-04-26 09:21 5.91867 116.04345 29 ft 13 kts 12°
2026-04-26 09:21 5.91882 116.04351 29 ft 1 kts 20°
2026-04-26 09:21 5.91950 116.04375 29 ft 34 kts 20°
2026-04-26 09:21 5.92365 116.04549 26 ft 93 kts 23°
2026-04-26 09:22 5.93120 116.04867 24 ft 141 kts 22°
2026-04-26 09:22 5.94105 116.05290 294 ft 159 kts 21°
2026-04-26 09:22 5.95142 116.05718 723 ft 164 kts 21°
2026-04-26 09:22 5.96225 116.06168 1253 ft 172 kts 22°
2026-04-26 09:23 5.97369 116.06605 1782 ft 181 kts 21°
2026-04-26 09:23 5.98573 116.07057 2206 ft 188 kts 21°
2026-04-26 09:23 5.99837 116.07572 2565 ft 204 kts 22°
2026-04-26 09:23 6.01189 116.08116 3100 ft 212 kts 22°
2026-04-26 09:24 6.02557 116.08665 3693 ft 216 kts 22°
2026-04-26 09:24 6.03951 116.09228 4404 ft 217 kts 24°
2026-04-26 09:24 6.05364 116.09812 5063 ft 220 kts 24°
2026-04-26 09:24 6.06797 116.10415 5749 ft 225 kts 25°
2026-04-26 09:25 6.08264 116.11006 6461 ft 231 kts 24°
2026-04-26 09:25 6.09756 116.11589 7242 ft 232 kts 23°
2026-04-26 09:25 6.11252 116.12186 8026 ft 231 kts 25°
2026-04-26 09:25 6.12743 116.12802 8771 ft 233 kts 25°
2026-04-26 09:26 6.14250 116.13422 9506 ft 236 kts 25°
2026-04-26 09:26 6.15778 116.14046 10198 ft 236 kts 26°
2026-04-26 09:26 6.17301 116.14668 10914 ft 237 kts 26°
2026-04-26 09:26 6.18774 116.15469 11394 ft 247 kts 37°
2026-04-26 09:27 6.20215 116.16539 11723 ft 268 kts 40°
2026-04-26 09:27 6.21730 116.17738 12025 ft 288 kts 40°
2026-04-26 09:27 6.23358 116.19030 12325 ft 308 kts 40°
2026-04-26 09:27 6.25090 116.20399 12608 ft 327 kts 40°
2026-04-26 09:28 6.26903 116.21831 12899 ft 344 kts 40°
2026-04-26 09:28 6.28842 116.23359 13202 ft 355 kts 40°
2026-04-26 09:28 6.30787 116.24886 13734 ft 360 kts 40°
2026-04-26 09:28 6.32772 116.26441 14216 ft 365 kts 39°
2026-04-26 09:29 6.34794 116.28027 14671 ft 371 kts 39°
2026-04-26 09:29 6.36829 116.29627 15181 ft 374 kts 39°
2026-04-26 09:29 6.38885 116.31244 15713 ft 377 kts 39°
2026-04-26 09:29 6.40958 116.32873 16216 ft 379 kts 40°
2026-04-26 09:30 6.43047 116.34517 16689 ft 383 kts 39°
2026-04-26 09:30 6.45164 116.36181 17195 ft 386 kts 39°
2026-04-26 09:30 6.47219 116.37920 17724 ft 388 kts 46°
2026-04-26 09:30 6.49049 116.39932 18186 ft 390 kts 51°
2026-04-26 09:31 6.50796 116.42036 18644 ft 393 kts 52°
2026-04-26 09:31 6.52540 116.44166 19074 ft 395 kts 52°
2026-04-26 09:31 6.54292 116.46301 19497 ft 396 kts 51°
2026-04-26 09:31 6.56054 116.48441 19882 ft 399 kts 52°
2026-04-26 09:32 6.57853 116.50535 20267 ft 403 kts 47°
2026-04-26 09:32 6.59944 116.52428 20681 ft 405 kts 40°
2026-04-26 09:32 6.62197 116.54166 21093 ft 410 kts 37°
2026-04-26 09:32 6.64529 116.55828 21556 ft 411 kts 36°
2026-04-26 09:33 6.66891 116.57456 21936 ft 414 kts 36°
2026-04-26 09:33 6.69279 116.59085 22374 ft 414 kts 36°
2026-04-26 09:33 6.71665 116.60721 22740 ft 416 kts 37°
2026-04-26 09:33 6.74055 116.62376 23046 ft 418 kts 37°
2026-04-26 09:34 6.76465 116.64060 23436 ft 422 kts 37°
2026-04-26 09:34 6.78883 116.65753 23746 ft 425 kts 37°
2026-04-26 09:34 6.81312 116.67461 24042 ft 427 kts 36°
2026-04-26 09:34 6.83728 116.69154 24253 ft 431 kts 36°
2026-04-26 09:35 6.86212 116.70896 24576 ft 434 kts 36°
2026-04-26 09:35 6.88692 116.72643 24900 ft 436 kts 36°
2026-04-26 09:35 6.91190 116.74407 25189 ft 439 kts 37°
2026-04-26 09:35 6.93700 116.76179 25501 ft 442 kts 36°
2026-04-26 09:36 6.96223 116.77960 25825 ft 444 kts 37°
2026-04-26 09:36 6.98759 116.79750 26106 ft 447 kts 36°
2026-04-26 09:36 7.01316 116.81553 26381 ft 449 kts 36°
2026-04-26 09:36 7.03880 116.83362 26684 ft 451 kts 37°
2026-04-26 09:37 7.06431 116.85159 26945 ft 454 kts 36°
2026-04-26 09:37 7.09026 116.86998 27222 ft 457 kts 37°
2026-04-26 09:37 7.11636 116.88839 27462 ft 460 kts 36°
2026-04-26 09:37 7.14260 116.90686 27718 ft 463 kts 36°
2026-04-26 09:38 7.16911 116.92548 27994 ft 465 kts 36°
2026-04-26 09:38 7.19563 116.94416 28244 ft 467 kts 37°
2026-04-26 09:38 7.22236 116.96301 28499 ft 469 kts 36°
2026-04-26 09:38 7.24929 116.98201 28776 ft 474 kts 37°
2026-04-26 09:39 7.27628 117.00105 29147 ft 474 kts 36°
2026-04-26 09:39 7.30299 117.01986 29397 ft 476 kts 36°
2026-04-26 09:39 7.33021 117.03906 29620 ft 479 kts 36°
2026-04-26 09:39 7.35757 117.05840 29879 ft 481 kts 36°
2026-04-26 09:40 7.38502 117.07775 30065 ft 483 kts 36°
2026-04-26 09:40 7.41260 117.09722 30227 ft 485 kts 36°
2026-04-26 09:40 7.44035 117.11683 30444 ft 487 kts 36°
2026-04-26 09:40 7.46813 117.13644 30662 ft 488 kts 37°
2026-04-26 09:41 7.49607 117.15617 30840 ft 490 kts 36°
2026-04-26 09:41 7.52403 117.17593 31046 ft 492 kts 36°
2026-04-26 09:41 7.55213 117.19579 31180 ft 495 kts 36°
2026-04-26 09:41 7.58042 117.21579 31395 ft 496 kts 36°
2026-04-26 09:42 7.60871 117.23579 31649 ft 496 kts 36°
2026-04-26 09:42 7.63656 117.25544 31929 ft 495 kts 36°
2026-04-26 09:42 7.66484 117.27542 32190 ft 495 kts 36°
2026-04-26 09:42 7.69298 117.29538 32474 ft 494 kts 37°
2026-04-26 09:43 7.72106 117.31538 32746 ft 494 kts 37°
2026-04-26 09:43 7.74915 117.33550 33016 ft 494 kts 37°
2026-04-26 09:43 7.77721 117.35561 33293 ft 493 kts 37°
2026-04-26 09:43 7.80511 117.37557 33598 ft 492 kts 37°
2026-04-26 09:44 7.83310 117.39558 33866 ft 492 kts 37°
2026-04-26 09:44 7.86104 117.41555 34086 ft 492 kts 37°
2026-04-26 09:44 7.88889 117.43545 34344 ft 491 kts 37°
2026-04-26 09:44 7.91679 117.45541 34605 ft 490 kts 37°
2026-04-26 09:45 7.94451 117.47524 34859 ft 488 kts 37°
2026-04-26 09:45 7.97224 117.49510 35044 ft 490 kts 36°
2026-04-26 09:45 8.00013 117.51508 35321 ft 490 kts 36°
2026-04-26 09:45 8.02747 117.53467 35679 ft 487 kts 36°
2026-04-26 09:46 8.05504 117.55445 35914 ft 487 kts 36°
2026-04-26 09:46 8.08260 117.57429 36146 ft 486 kts 36°
2026-04-26 09:46 8.11015 117.59408 36343 ft 486 kts 36°
2026-04-26 09:46 8.13787 117.61391 36550 ft 486 kts 36°
2026-04-26 09:47 8.16536 117.63353 36760 ft 485 kts 36°
2026-04-26 09:47 8.19285 117.65321 36953 ft 484 kts 36°
2026-04-26 09:47 8.22039 117.67295 37143 ft 485 kts 36°
2026-04-26 09:47 8.24786 117.69264 37364 ft 484 kts 36°
2026-04-26 09:48 8.27534 117.71234 37591 ft 483 kts 36°
2026-04-26 09:48 8.30272 117.73195 37807 ft 482 kts 36°
2026-04-26 09:48 8.32977 117.75132 38020 ft 482 kts 36°
2026-04-26 09:48 8.35713 117.77096 38243 ft 481 kts 36°
2026-04-26 09:49 8.38432 117.79048 38445 ft 480 kts 36°
2026-04-26 09:49 8.41162 117.81008 38599 ft 480 kts 35°
2026-04-26 09:49 8.43887 117.82965 38723 ft 481 kts 35°
2026-04-26 09:49 8.46615 117.84923 38836 ft 482 kts 35°
2026-04-26 09:50 8.49352 117.86889 38839 ft 481 kts 35°
2026-04-26 09:50 8.54803 117.90805 38838 ft 480 kts 35°
2026-04-26 09:51 8.60210 117.94691 38844 ft 480 kts 35°
2026-04-26 09:51 8.65654 117.98604 38838 ft 480 kts 35°
2026-04-26 09:52 8.71098 118.02519 38857 ft 480 kts 35°
2026-04-26 09:52 8.78365 118.07747 38849 ft 481 kts 35°
2026-04-26 09:53 8.83819 118.11672 38850 ft 481 kts 35°
2026-04-26 09:53 8.89269 118.15597 38850 ft 481 kts 35°
2026-04-26 09:54 8.94731 118.19531 38850 ft 481 kts 35°
2026-04-26 09:54 9.00180 118.23457 38853 ft 481 kts 35°
2026-04-26 09:55 9.05593 118.27360 38850 ft 481 kts 35°
2026-04-26 09:55 9.11047 118.31301 38855 ft 482 kts 35°
2026-04-26 09:56 9.16503 118.35257 38851 ft 482 kts 35°
2026-04-26 09:56 9.21957 118.39216 38855 ft 482 kts 35°
2026-04-26 09:57 9.27402 118.43168 38855 ft 481 kts 35°
2026-04-26 09:57 9.32852 118.47125 38858 ft 481 kts 35°
2026-04-26 09:58 9.38263 118.51054 38858 ft 482 kts 35°
2026-04-26 09:58 9.43715 118.55015 38855 ft 482 kts 35°
2026-04-26 09:59 9.49167 118.58977 38845 ft 482 kts 35°
2026-04-26 09:59 9.54631 118.62950 38835 ft 482 kts 35°
2026-04-26 10:00 9.60082 118.66915 38830 ft 482 kts 35°
2026-04-26 10:00 9.65533 118.70882 38833 ft 482 kts 35°
2026-04-26 10:01 9.70952 118.74828 38835 ft 483 kts 35°
2026-04-26 10:01 9.76735 118.78250 38835 ft 481 kts 25°
2026-04-26 10:02 9.82808 118.81136 38827 ft 481 kts 23°
2026-04-26 10:02 9.88921 118.83918 38847 ft 481 kts 23°
2026-04-26 10:03 9.95037 118.86696 38849 ft 482 kts 23°
2026-04-26 10:03 10.01161 118.89495 38849 ft 483 kts 23°
2026-04-26 10:04 10.07282 118.92304 38848 ft 483 kts 23°
2026-04-26 10:04 10.13368 118.95100 38850 ft 483 kts 23°
2026-04-26 10:05 10.19480 118.97908 38851 ft 482 kts 23°
2026-04-26 10:05 10.25593 119.00718 38852 ft 482 kts 23°
2026-04-26 10:06 10.31705 119.03525 38852 ft 482 kts 23°
2026-04-26 10:06 10.37822 119.06336 38849 ft 482 kts 23°
2026-04-26 10:07 10.43937 119.09151 38847 ft 482 kts 23°
2026-04-26 10:07 10.50011 119.11948 38850 ft 482 kts 23°
2026-04-26 10:08 10.56120 119.14762 38853 ft 482 kts 23°
2026-04-26 10:08 10.62247 119.17585 38852 ft 483 kts 23°
2026-04-26 10:09 10.68382 119.20413 38852 ft 483 kts 23°
2026-04-26 10:09 10.74503 119.23235 38851 ft 483 kts 23°
2026-04-26 10:10 10.80637 119.26065 38863 ft 483 kts 23°
2026-04-26 10:10 10.86758 119.28890 38854 ft 483 kts 23°
2026-04-26 10:11 10.92857 119.31706 38863 ft 484 kts 23°
2026-04-26 10:11 10.99000 119.34544 38856 ft 484 kts 23°
2026-04-26 10:12 11.05143 119.37384 38861 ft 484 kts 23°
2026-04-26 10:12 11.11280 119.40221 38856 ft 484 kts 23°
2026-04-26 10:13 11.17416 119.43059 38861 ft 484 kts 23°
2026-04-26 10:13 11.23561 119.45903 38866 ft 485 kts 23°
2026-04-26 10:14 11.29666 119.48730 38866 ft 485 kts 23°
2026-04-26 10:14 11.35807 119.51575 38865 ft 485 kts 23°
2026-04-26 10:15 11.41954 119.54424 38866 ft 485 kts 23°
2026-04-26 10:15 11.48101 119.57274 38866 ft 485 kts 23°
2026-04-26 10:16 11.54242 119.60123 38861 ft 485 kts 23°
2026-04-26 10:16 11.60383 119.62973 38863 ft 485 kts 23°
2026-04-26 10:17 11.66531 119.65829 38863 ft 485 kts 23°
2026-04-26 10:17 11.72887 119.67950 38865 ft 481 kts 11°
2026-04-26 10:18 11.79405 119.69318 38871 ft 481 kts
2026-04-26 10:18 11.85988 119.70638 38866 ft 482 kts
2026-04-26 10:19 11.92581 119.71954 38867 ft 482 kts
2026-04-26 10:19 11.99158 119.73267 38864 ft 482 kts
2026-04-26 10:20 12.04640 119.74361 38866 ft 482 kts
2026-04-26 10:20 12.12304 119.75891 38862 ft 482 kts
2026-04-26 10:21 12.18874 119.77204 38863 ft 481 kts
2026-04-26 10:21 12.25449 119.78518 38862 ft 481 kts
2026-04-26 10:22 12.32040 119.79836 38875 ft 481 kts
2026-04-26 10:22 12.38615 119.81151 38872 ft 481 kts
2026-04-26 10:23 12.45150 119.82460 38858 ft 481 kts
2026-04-26 10:23 12.51720 119.83776 38873 ft 481 kts
2026-04-26 10:24 12.58299 119.85094 38755 ft 481 kts
2026-04-26 10:24 12.61586 119.85753 38243 ft 483 kts
2026-04-26 10:24 12.64890 119.86414 37562 ft 485 kts
2026-04-26 10:25 12.68207 119.87079 36896 ft 486 kts
2026-04-26 10:25 12.71534 119.87747 36251 ft 488 kts
2026-04-26 10:25 12.74870 119.88415 35622 ft 489 kts
2026-04-26 10:25 12.78222 119.89088 35003 ft 490 kts
2026-04-26 10:26 12.81570 119.89761 34399 ft 492 kts
2026-04-26 10:26 12.84943 119.90435 33792 ft 493 kts 10°
2026-04-26 10:26 12.88309 119.91107 33119 ft 494 kts 10°
2026-04-26 10:26 12.91686 119.91788 32462 ft 496 kts 10°
2026-04-26 10:27 12.95036 119.92461 31819 ft 497 kts 10°
2026-04-26 10:27 12.98434 119.93146 31189 ft 498 kts 10°
2026-04-26 10:27 13.01838 119.93834 30569 ft 497 kts 10°
2026-04-26 10:27 13.05220 119.94515 29957 ft 494 kts 11°
2026-04-26 10:28 13.08594 119.95196 29266 ft 494 kts 10°
2026-04-26 10:28 13.11954 119.95869 28583 ft 490 kts 10°
2026-04-26 10:28 13.15299 119.96544 27929 ft 487 kts 10°
2026-04-26 10:28 13.18622 119.97214 27274 ft 484 kts 10°
2026-04-26 10:29 13.21908 119.97881 26647 ft 479 kts 10°
2026-04-26 10:29 13.25119 119.98526 26051 ft 475 kts 10°
2026-04-26 10:29 13.28348 119.99175 25448 ft 470 kts 10°
2026-04-26 10:29 13.31551 119.99824 24884 ft 466 kts 10°
2026-04-26 10:30 13.34719 120.00465 24332 ft 462 kts
2026-04-26 10:30 13.37861 120.01098 23796 ft 458 kts
2026-04-26 10:30 13.40974 120.01725 23230 ft 454 kts
2026-04-26 10:30 13.44067 120.02348 22598 ft 450 kts 10°
2026-04-26 10:31 13.47125 120.02965 21995 ft 446 kts 10°
2026-04-26 10:31 13.50157 120.03572 21402 ft 442 kts 10°
2026-04-26 10:31 13.53149 120.04175 20823 ft 435 kts 10°
2026-04-26 10:31 13.56111 120.04765 20275 ft 433 kts 10°
2026-04-26 10:32 13.59050 120.05362 19740 ft 428 kts 10°
2026-04-26 10:32 13.61918 120.05946 19206 ft 424 kts 10°
2026-04-26 10:32 13.64798 120.06527 18723 ft 418 kts 10°
2026-04-26 10:32 13.67635 120.07098 18225 ft 413 kts 11°
2026-04-26 10:33 13.70443 120.07672 17670 ft 408 kts 11°
2026-04-26 10:33 13.73217 120.08236 17123 ft 404 kts 10°
2026-04-26 10:33 13.75962 120.08792 16589 ft 400 kts 11°
2026-04-26 10:33 13.78677 120.09339 16071 ft 395 kts 11°
2026-04-26 10:34 13.81363 120.09884 15569 ft 391 kts 10°
2026-04-26 10:34 13.84012 120.10462 15077 ft 387 kts 12°
2026-04-26 10:34 13.86618 120.11121 14595 ft 382 kts 18°
2026-04-26 10:34 13.88893 120.12403 14138 ft 378 kts 40°
2026-04-26 10:35 13.90546 120.14478 13686 ft 375 kts 62°
2026-04-26 10:35 13.91560 120.16924 13338 ft 367 kts 67°
2026-04-26 10:35 13.92590 120.19298 13010 ft 358 kts 63°
2026-04-26 10:35 13.93760 120.21531 12701 ft 351 kts 59°
2026-04-26 10:36 13.95030 120.23651 12382 ft 343 kts 57°
2026-04-26 10:36 13.96338 120.25671 12074 ft 335 kts 55°
2026-04-26 10:36 13.97650 120.27610 11779 ft 325 kts 54°
2026-04-26 10:36 13.98954 120.29483 11478 ft 317 kts 54°
2026-04-26 10:37 14.00238 120.31303 11208 ft 311 kts 54°
2026-04-26 10:37 14.01482 120.33058 10962 ft 304 kts 54°
2026-04-26 10:37 14.02722 120.34796 10702 ft 298 kts 54°
2026-04-26 10:37 14.03939 120.36506 10449 ft 293 kts 54°
2026-04-26 10:38 14.05135 120.38181 10198 ft 288 kts 54°
2026-04-26 10:38 14.06317 120.39831 9962 ft 285 kts 54°
2026-04-26 10:38 14.07498 120.41482 9718 ft 286 kts 53°
2026-04-26 10:38 14.08681 120.43140 9461 ft 288 kts 54°
2026-04-26 10:39 14.09858 120.44792 9195 ft 284 kts 54°
2026-04-26 10:39 14.10637 120.45879 9029 ft 283 kts 53°
2026-04-26 10:39 14.11915 120.47438 8767 ft 281 kts 48°
2026-04-26 10:39 14.13226 120.48886 8523 ft 278 kts 47°
2026-04-26 10:40 14.14560 120.50302 8281 ft 274 kts 46°
2026-04-26 10:40 14.15889 120.51676 8039 ft 267 kts 45°
2026-04-26 10:40 14.17197 120.53011 7807 ft 262 kts 46°
2026-04-26 10:40 14.18490 120.54329 7481 ft 261 kts 46°
2026-04-26 10:41 14.19778 120.55645 7144 ft 262 kts 46°
2026-04-26 10:41 14.21074 120.56971 6811 ft 263 kts 46°
2026-04-26 10:41 14.22377 120.58305 6459 ft 263 kts 46°
2026-04-26 10:41 14.23676 120.59636 6118 ft 263 kts 46°
2026-04-26 10:42 14.24973 120.60968 5761 ft 261 kts 46°
2026-04-26 10:42 14.26238 120.62267 5407 ft 251 kts 46°
2026-04-26 10:42 14.27430 120.63499 5095 ft 241 kts 46°
2026-04-26 10:42 14.28580 120.64681 4943 ft 226 kts 46°
2026-04-26 10:43 14.29693 120.65823 4989 ft 226 kts 46°
2026-04-26 10:43 14.30807 120.66966 5005 ft 225 kts 46°
2026-04-26 10:43 14.31908 120.68096 5025 ft 223 kts 46°
2026-04-26 10:43 14.32886 120.69333 4893 ft 222 kts 57°
2026-04-26 10:44 14.33697 120.70692 4669 ft 222 kts 60°
2026-04-26 10:44 14.34538 120.72028 4417 ft 222 kts 54°
2026-04-26 10:44 14.35420 120.73333 4171 ft 222 kts 58°
2026-04-26 10:44 14.36207 120.74692 3939 ft 220 kts 61°
2026-04-26 10:45 14.36962 120.76079 3717 ft 222 kts 61°
2026-04-26 10:45 14.37705 120.77465 3471 ft 220 kts 62°
2026-04-26 10:45 14.38434 120.78849 3245 ft 218 kts 62°
2026-04-26 10:45 14.39150 120.80213 2992 ft 214 kts 62°
2026-04-26 10:46 14.39845 120.81528 2761 ft 209 kts 62°
2026-04-26 10:46 14.40545 120.82839 2558 ft 208 kts 62°
2026-04-26 10:46 14.41230 120.84110 2490 ft 198 kts 62°
2026-04-26 10:46 14.41899 120.85341 2488 ft 196 kts 62°
2026-04-26 10:47 14.42557 120.86566 2493 ft 192 kts 62°
2026-04-26 10:47 14.43194 120.87743 2492 ft 185 kts 61°
2026-04-26 10:47 14.43823 120.88904 2414 ft 186 kts 62°
2026-04-26 10:47 14.44452 120.90073 2210 ft 187 kts 63°
2026-04-26 10:48 14.45093 120.91265 1948 ft 191 kts 63°
2026-04-26 10:48 14.45735 120.92457 1696 ft 189 kts 63°
2026-04-26 10:48 14.46364 120.93631 1445 ft 182 kts 63°
2026-04-26 10:48 14.46959 120.94738 1229 ft 171 kts 63°
2026-04-26 10:49 14.47516 120.95775 1011 ft 159 kts 62°
2026-04-26 10:49 14.48026 120.96723 828 ft 145 kts 62°
2026-04-26 10:49 14.48492 120.97591 654 ft 136 kts 65°
2026-04-26 10:49 14.48955 120.98445 483 ft 137 kts 64°
2026-04-26 10:50 14.49422 120.99289 262 ft 135 kts 64°
2026-04-26 10:50 14.49725 120.99856 201 ft 138 kts 63°
2026-04-26 10:50 14.50324 121.00972 64 ft 112 kts 62°
2026-04-26 10:50 14.50612 121.01490 64 ft 55 kts 61°
2026-04-26 10:51 14.50699 121.01652 72 ft 3 kts 60°
2026-04-26 10:51 14.50858 121.01938 68 ft 27 kts 60°
2026-04-26 10:51 14.50950 121.02105 61 ft 27 kts 60°
2026-04-26 10:52 14.51065 121.02248 67 ft 22 kts 37°
2026-04-26 10:52 14.51152 121.02302 67 ft 12 kts
2026-04-26 10:52 14.51181 121.02246 69 ft 9 kts 249°
2026-04-26 10:52 14.51154 121.02191 73 ft 6 kts 242°
2026-04-26 10:53 14.51143 121.02169 63 ft 4 kts 242°
2026-04-26 10:53 14.51126 121.02137 66 ft 6 kts 241°
2026-04-26 10:53 14.51102 121.02094 71 ft 8 kts 240°
2026-04-26 10:54 14.51082 121.01985 62 ft 8 kts 302°
2026-04-26 10:54 14.51126 121.01932 65 ft 11 kts 313°
2026-04-26 10:54 14.51181 121.01874 69 ft 12 kts 315°
2026-04-26 10:54 14.51244 121.01809 62 ft 14 kts 315°
2026-04-26 10:55 14.51314 121.01736 62 ft 15 kts 315°
2026-04-26 10:55 14.51392 121.01655 62 ft 16 kts 315°
2026-04-26 10:55 14.51476 121.01569 63 ft 18 kts 315°
2026-04-26 10:55 14.51562 121.01481 62 ft 17 kts 316°
2026-04-26 10:56 14.51637 121.01418 65 ft 8 kts 352°
2026-04-26 10:56 14.51680 121.01442 68 ft 7 kts 41°
2026-04-26 10:56 14.51707 121.01467 63 ft 3 kts 43°
2026-04-26 10:56 14.51708 121.01468 72 ft 0 kts 43°